Home   Weather   Scarborough   Past weeks

Flag for Trinidad and Tobago Past Weather in Scarborough, Trinidad and Tobago — Yesterday and Last 2 Weeks

Now
79 °F

Passing clouds.


Feels Like: 82 °F
Forecast: 80 / 87 °F
Wind: No wind

Location: Crown Pt./ Scarborou

Current Time: Aug 20, 2017 at 4:12:46 am

Latest Report: Aug 20, 2017 at 2:00 am


Visibility: N/A

Pressure: 29.83 "Hg

Humidity: 89%

Dew Point: 75 °F

Location of ScarboroughLocation

Past Weather in Scarborough — Graph

°F

Scarborough Temperature Yesterday

Maximum temperature yesterday: 90 °F (at 12:00 pm)
Minimum temperature yesterday: 79 °F (at 6:00 pm)
Average temperature yesterday: 85 °F

High & Low Weather Summary for the Past Weeks

 TemperatureHumidityPressure
High91 °F (Aug 8, 12:00 pm)94% (Aug 5, 7:00 pm)30.01 "Hg (Aug 5, 7:00 pm)
Low77 °F (Aug 18, 5:20 am)55% (Aug 8, 2:00 pm)29.77 "Hg (Aug 18, 4:00 pm)
Average84 °F77%29.90 "Hg
* Reported Aug 5 2:00 am — Aug 20 2:00 am, Scarborough. Weather by CustomWeather, © 2017

Note: Actual official high and low records may vary slightly from our data, if they occured in-between our weather recording intervals... More about our weather records

Advertising

Scarborough Weather History for the Previous 24 Hours

Scroll right to see more
 ConditionsComfort  
Time TempWeatherWind HumidityBarometerVisibility
2:00 am
Sun, Aug 20
79 °FPassing clouds.No wind89%29.83 "HgN/A
1:00 am79 °FScattered showers. Passing clouds.3 mph89%29.86 "HgN/A
12:15 am79 °FScattered showers. Passing clouds.No wind89%29.86 "HgN/A
12:00 am79 °FThunderstorms. Passing clouds.No wind89%29.86 "HgN/A
11:22 pm
Sat, Aug 19
79 °FThunderstorms. Passing clouds.No wind84%29.89 "HgN/A
11:00 pm81 °FScattered showers. Passing clouds.3 mph84%29.89 "HgN/A
10:00 pm82 °FScattered showers. Passing clouds.No wind79%29.89 "HgN/A
9:00 pm82 °FScattered showers. Passing clouds.3 mph79%29.86 "HgN/A
8:00 pm81 °FScattered showers. Passing clouds.12 mph84%29.83 "HgN/A
7:00 pm81 °FScattered showers. Passing clouds.6 mph89%29.83 "Hg5 mi
6:00 pm79 °FScattered showers. Scattered clouds.5 mph84%29.80 "Hg5 mi
5:00 pm88 °FScattered showers. Scattered clouds.12 mph70%29.80 "HgN/A
4:00 pm90 °FPassing clouds.13 mph67%29.80 "HgN/A
3:00 pm90 °FPassing clouds.16 mph63%29.80 "HgN/A
2:00 pm90 °FPassing clouds.14 mph67%29.83 "HgN/A
1:00 pm90 °FScattered showers. Passing clouds.15 mph67%29.86 "HgN/A
12:00 pm90 °FPassing clouds.14 mph67%29.86 "HgN/A
11:00 am88 °FPassing clouds.14 mph70%29.86 "HgN/A
10:00 am88 °FPassing clouds.14 mph70%29.89 "HgN/A
9:00 am86 °FPassing clouds.13 mph70%29.89 "HgN/A
8:00 am86 °FPassing clouds.14 mph75%29.86 "HgN/A
7:00 am84 °FScattered showers. Passing clouds.15 mph79%29.83 "HgN/A
6:00 am84 °FScattered showers. Passing clouds.21 mph79%29.83 "HgN/A
5:00 am84 °FPassing clouds.17 mph79%29.80 "HgN/A
4:00 am84 °FPassing clouds.18 mph79%29.80 "HgN/A
Weather by CustomWeather, © 2017

See weather overviewHow to use our weather pages